Photometre #843[NE_1.6_Dp] Stornoway_MO AOT

File : 20200925_843.hum

25/09/2020,07:25:42,TEMP=7.7,BA=5.68,STAT.A,ExtBa=12.30
25/09/2020,07:30:43,TEMP=7.9,BA=5.68,STAT.A,ExtBa=12.30
25/09/2020,07:36:37,TEMP=8.0,BA=5.68,STAT.A,ExtBa=12.20
25/09/2020,07:43:41,TEMP=8.1,BA=5.68,STAT.A,ExtBa=12.20
25/09/2020,07:52:15,TEMP=8.1,BA=5.68,STAT.A,ExtBa=12.20
25/09/2020,08:02:57,TEMP=8.2,BA=5.68,STAT.A,ExtBa=12.20
25/09/2020,08:16:40,TEMP=8.5,BA=5.68,STAT.B,ExtBa=12.30
25/09/2020,08:23:20,TEMP=8.7,BA=5.68,STAT.A,ExtBa=12.20
25/09/2020,08:30:52,TEMP=9.0,BA=5.68,STAT.A,ExtBa=12.20
25/09/2020,08:39:31,TEMP=9.1,BA=5.68,STAT.A,ExtBa=12.20
25/09/2020,08:49:31,TEMP=9.1,BA=5.64,STAT.A,ExtBa=12.20
25/09/2020,09:01:17,TEMP=9.3,BA=5.68,STAT.C,ExtBa=12.20
25/09/2020,09:24:52,TEMP=10.0,BA=5.64,STAT.A,ExtBa=12.00
25/09/2020,09:27:59,TEMP=9.5,BA=5.64,STAT.F,ExtBa=12.10
25/09/2020,09:31:46,TEMP=9.3,BA=5.68,STAT.D,ExtBa=12.10
25/09/2020,09:46:46,TEMP=9.4,BA=5.68,STAT.D,ExtBa=12.20
25/09/2020,10:01:46,TEMP=10.0,BA=5.68,STAT.D,ExtBa=12.20
25/09/2020,10:16:48,TEMP=12.3,BA=5.68,STAT.F,ExtBa=12.20
25/09/2020,10:43:30,TEMP=14.4,BA=5.64,STAT.D,ExtBa=12.00
25/09/2020,10:46:46,TEMP=14.2,BA=5.64,STAT.D,ExtBa=12.00
25/09/2020,11:01:46,TEMP=12.1,BA=5.68,STAT.D,ExtBa=12.10
25/09/2020,11:16:48,TEMP=10.6,BA=5.68,STAT.F,ExtBa=12.10
25/09/2020,11:31:46,TEMP=10.5,BA=5.68,STAT.D,ExtBa=12.20
25/09/2020,11:46:46,TEMP=12.8,BA=5.68,STAT.D,ExtBa=12.20
25/09/2020,12:01:46,TEMP=14.4,BA=5.68,STAT.D,ExtBa=12.20
25/09/2020,12:16:48,TEMP=14.0,BA=5.68,STAT.F,ExtBa=12.20
25/09/2020,12:41:43,TEMP=15.4,BA=5.64,STAT.D,ExtBa=11.90
25/09/2020,12:46:46,TEMP=15.0,BA=5.64,STAT.D,ExtBa=12.00
25/09/2020,13:01:46,TEMP=15.1,BA=5.64,STAT.D,ExtBa=12.10
25/09/2020,13:16:48,TEMP=15.4,BA=5.64,STAT.F,ExtBa=12.10
25/09/2020,13:42:11,TEMP=14.6,BA=5.64,STAT.D,ExtBa=11.90
25/09/2020,13:46:46,TEMP=13.8,BA=5.64,STAT.D,ExtBa=12.00
25/09/2020,14:01:46,TEMP=13.2,BA=5.64,STAT.D,ExtBa=12.10
25/09/2020,14:16:48,TEMP=13.2,BA=5.64,STAT.F,ExtBa=12.10
25/09/2020,14:41:32,TEMP=13.7,BA=5.64,STAT.D,ExtBa=11.90
25/09/2020,14:46:46,TEMP=13.4,BA=5.64,STAT.D,ExtBa=12.00
25/09/2020,15:01:46,TEMP=13.9,BA=5.64,STAT.D,ExtBa=12.10
25/09/2020,15:16:47,TEMP=14.1,BA=5.64,STAT.F,ExtBa=12.10
25/09/2020,15:42:01,TEMP=14.1,BA=5.60,STAT.A,ExtBa=11.90
25/09/2020,15:45:16,TEMP=13.8,BA=5.60,STAT.C,ExtBa=11.90
25/09/2020,16:10:47,TEMP=13.1,BA=5.60,STAT.A,ExtBa=11.90
25/09/2020,16:13:54,TEMP=12.7,BA=5.60,STAT.A,ExtBa=11.90
25/09/2020,16:16:04,TEMP=12.8,BA=5.60,STAT.A,ExtBa=11.90
25/09/2020,16:18:12,TEMP=12.8,BA=5.60,STAT.A,ExtBa=11.90
25/09/2020,16:20:23,TEMP=12.7,BA=5.64,STAT.B,ExtBa=11.90
25/09/2020,16:30:37,TEMP=12.1,BA=5.64,STAT.A,ExtBa=11.90
25/09/2020,16:41:19,TEMP=11.3,BA=5.64,STAT.A,ExtBa=12.00
25/09/2020,16:49:53,TEMP=11.2,BA=5.64,STAT.A,ExtBa=12.00
25/09/2020,16:56:57,TEMP=11.1,BA=5.60,STAT.A,ExtBa=12.00
25/09/2020,17:02:51,TEMP=11.0,BA=5.64,STAT.A,ExtBa=12.00
25/09/2020,17:07:52,TEMP=10.8,BA=5.64,STAT.A,ExtBa=12.00